Location: Brede
(50.9167°N, 0.6000°E)
Time: 09:38:01
(UTC+00:00)

A-11 Canister half - Pass Details

Date: 29 November 2020
Orbit: 1524 x 1684 km, 47.3° (Epoch: 20 January)

Event Time Altitude Azimuth Distance (km) Brightness Sun altitude
Rises 06:49:11 0° 240° (WSW) 4,932 11.3 -7.2°
Reaches altitude 10° 06:52:24 10° 237° (WSW) 3,940 10.9 -6.8°
Maximum altitude 07:02:18 62° 160° (SSE) 1,834 9.7 -5.4°
Drops below altitude 10° 07:11:58 10° 84° (E) 3,856 12.0 -4.0°
Sets 07:15:05 0° 81° (E) 4,822 12.5 -3.6°
